Location: Carabito
(9.8355°N, 67.9249°W)
Time: 13:20:27
(UTC+00:00)

Ariane H10-3 - Pass Details

Date: 23 May 2024
Orbit: 344 x 23436 km, 7.7° (Epoch: 24 June)

Event Time Altitude Azimuth Distance (km) Brightness Sun altitude
Exits shadow 08:49:23 37° 147° (SSE) 552 2.3 -19.0°
Drops below altitude 10° 08:51:10 10° 103° (ESE) 1,287 4.9 -18.6°
Sets 08:53:11 0° 95° (E) 2,342 6.6 -18.2°
